This is the latest recevied weather packets stored in our database for station/object K9APR. If no packets are shown the sender has not sent any weather packets the latest 10 day(s).
| Time | Temp. | Humidity | Pressure | Rain* | Wind** | Luminosity | Snow |
|---|---|---|---|---|---|---|---|
| 1777996761 | 17.78° C | 76% | 1008.4 hPa | 0 mm | - | - | - |
| 1777996222 | 17.78° C | 77% | 1008.5 hPa | 0 mm | - | - | - |
| 1777995682 | 17.78° C | 76% | 1008.5 hPa | 0 mm | - | - | - |
| 1777995142 | 17.78° C | 77% | 1008.5 hPa | 0 mm | - | - | - |
| 1777994601 | 17.78° C | 76% | 1008.3 hPa | 0 mm | - | - | - |
| 1777994061 | 17.78° C | 77% | 1008.1 hPa | 0 mm | - | - | - |
| 1777993523 | 17.78° C | 77% | 1008.3 hPa | 0 mm | - | - | - |
| 1777992982 | 17.78° C | 77% | 1008.2 hPa | 0 mm | - | - | - |
| 1777992442 | 17.22° C | 78% | 1008.1 hPa | 0 mm | - | - | - |
| 1777991901 | 17.22° C | 79% | 1007.9 hPa | 0 mm | - | - | - |
| 1777991362 | 17.22° C | 79% | 1008.1 hPa | 0 mm | - | - | - |
| 1777990822 | 16.67° C | 80% | 1008 hPa | 0 mm | - | - | - |
| 1777989743 | 16.11° C | 81% | 1007.9 hPa | 0 mm | - | - | - |
| 1777989201 | 15.56° C | 82% | 1007.9 hPa | 0 mm | - | - | - |
| 1777988663 | 15.56° C | 83% | 1008 hPa | 0 mm | - | - | - |
| 1777988121 | 15° C | 84% | 1007.8 hPa | 0 mm | - | - | - |
| 1777987583 | 14.44° C | 85% | 1007.9 hPa | 0 mm | - | - | - |
| 1777987042 | 14.44° C | 85% | 1007.5 hPa | 0 mm | - | - | - |
| 1777984881 | 13.89° C | 87% | 1007.4 hPa | 0 mm | - | - | - |
| 1777984341 | 13.33° C | 87% | 1007.2 hPa | 0 mm | - | - | - |
| 1777983802 | 13.33° C | 87% | 1007.2 hPa | 0 mm | - | - | - |
| 1777983262 | 13.33° C | 88% | 1007 hPa | 0 mm | - | - | - |
| 1777982721 | 12.78° C | 89% | 1007.1 hPa | 0 mm | - | - | - |
| 1777982180 | 12.78° C | 89% | 1007.2 hPa | 0 mm | - | - | - |
| 1777981641 | 12.78° C | 89% | 1007.2 hPa | 0 mm | - | - | - |
* Rain latest hour (hover to see other rain measurements)
** Current wind speed in m/s (hover to see current wind gust speed)